TimeEDT,TemperatureF,Dew PointF,Humidity,Sea Level PressureIn,VisibilityMPH,Wind Direction,Wind SpeedMPH,Gust SpeedMPH,PrecipitationIn,Events,Conditions,WindDirDegrees,DateUTC
12:06 AM,73.4,71.6,94,29.97,3.0,SE,4.6,-,0.01,Rain,Rain,130,2013-09-24 04:06:00
12:53 AM,73.9,72.0,93,29.95,10.0,ESE,5.8,-,0.02,,Overcast,120,2013-09-24 04:53:00
1:23 AM,73.4,71.6,94,29.95,6.0,SE,4.6,-,0.00,Rain,Light Rain,130,2013-09-24 05:23:00
1:51 AM,73.4,71.6,94,29.95,10.0,SSE,6.9,-,0.00,,Overcast,150,2013-09-24 05:51:00
1:53 AM,73.9,72.0,93,29.94,10.0,SSE,6.9,-,0.00,,Overcast,150,2013-09-24 05:53:00
2:17 AM,73.4,71.6,94,29.94,9.0,ESE,4.6,-,0.00,Rain,Light Rain,120,2013-09-24 06:17:00
2:53 AM,73.9,72.0,93,29.92,5.0,ESE,6.9,-,0.00,Rain,Light Rain,110,2013-09-24 06:53:00
3:53 AM,75.0,73.0,94,29.92,10.0,ESE,4.6,-,0.00,,Overcast,120,2013-09-24 07:53:00
4:53 AM,75.0,73.0,94,29.90,6.0,East,3.5,-,0.01,Rain,Light Rain,100,2013-09-24 08:53:00
5:19 AM,75.2,73.4,94,29.91,10.0,ESE,4.6,-,0.00,,Overcast,110,2013-09-24 09:19:00
5:53 AM,75.0,73.0,94,29.90,10.0,ESE,5.8,-,0.00,,Overcast,120,2013-09-24 09:53:00
6:53 AM,75.0,73.0,94,29.91,10.0,East,3.5,-,0.00,Rain,Light Rain,100,2013-09-24 10:53:00
7:53 AM,75.0,73.0,94,29.93,10.0,ESE,5.8,-,0.01,,Overcast,110,2013-09-24 11:53:00
8:10 AM,75.2,73.4,94,29.93,10.0,North,-9999.0,-,N/A,,Overcast,0,2013-09-24 12:10:00
8:19 AM,75.2,73.4,94,29.93,10.0,SSE,4.6,-,N/A,,Overcast,150,2013-09-24 12:19:00
8:50 AM,75.2,73.4,94,29.93,10.0,SSE,3.5,-,N/A,,Overcast,150,2013-09-24 12:50:00
8:53 AM,75.9,73.9,94,29.93,10.0,Calm,Calm,-,N/A,,Overcast,0,2013-09-24 12:53:00
9:31 AM,77.0,73.4,89,29.92,10.0,SE,4.6,-,N/A,,Scattered Clouds,140,2013-09-24 13:31:00
9:53 AM,77.0,73.9,90,29.92,10.0,SSW,3.5,-,N/A,,Mostly Cloudy,200,2013-09-24 13:53:00
10:53 AM,79.0,73.9,84,29.92,10.0,Calm,Calm,-,N/A,,Overcast,0,2013-09-24 14:53:00
11:37 AM,80.6,73.4,79,29.93,10.0,Calm,Calm,-,N/A,,Overcast,0,2013-09-24 15:37:00
11:53 AM,80.1,75.0,85,29.92,10.0,SSE,3.5,-,N/A,,Overcast,160,2013-09-24 15:53:00
12:34 PM,80.6,75.2,84,29.91,10.0,Variable,3.5,-,N/A,,Overcast,0,2013-09-24 16:34:00
12:41 PM,80.6,75.2,84,29.90,10.0,Calm,Calm,-,N/A,,Overcast,0,2013-09-24 16:41:00
12:53 PM,82.9,75.0,77,29.89,10.0,Calm,Calm,-,N/A,,Overcast,0,2013-09-24 16:53:00
1:04 PM,84.2,75.2,74,29.89,10.0,East,4.6,-,N/A,,Mostly Cloudy,80,2013-09-24 17:04:00
1:26 PM,82.4,75.2,79,29.89,10.0,ESE,4.6,-,N/A,,Mostly Cloudy,120,2013-09-24 17:26:00
1:53 PM,82.0,75.0,79,29.88,7.0,North,3.5,-,0.00,Rain,Light Rain,360,2013-09-24 17:53:00
2:22 PM,78.8,75.2,89,29.88,9.0,NNE,6.9,-,0.00,Rain,Light Rain,30,2013-09-24 18:22:00
2:33 PM,77.0,75.2,94,29.88,1.5,NNE,10.4,-,0.09,Rain,Heavy Rain,20,2013-09-24 18:33:00
2:37 PM,75.2,73.4,94,29.88,0.2,NNE,9.2,-,0.31,Fog-Rain,Heavy Rain,20,2013-09-24 18:37:00
2:42 PM,75.2,73.4,94,29.87,0.2,North,9.2,-,0.60,Fog-Rain-Thunderstorm,Heavy Thunderstorms and Rain,360,2013-09-24 18:42:00
2:49 PM,75.2,73.4,94,29.87,1.0,NNE,5.8,-,0.78,Rain-Thunderstorm,Heavy Thunderstorms and Rain,20,2013-09-24 18:49:00
2:53 PM,75.0,73.9,96,29.87,1.0,NNW,3.5,-,0.89,Rain-Thunderstorm,Heavy Thunderstorms and Rain,330,2013-09-24 18:53:00
3:08 PM,75.2,73.4,94,29.88,1.0,Calm,Calm,-,0.14,Rain-Thunderstorm,Heavy Thunderstorms and Rain,0,2013-09-24 19:08:00
3:48 PM,75.2,73.4,94,29.87,2.0,Calm,Calm,-,0.42,Rain,Heavy Rain,0,2013-09-24 19:48:00
3:53 PM,75.0,73.0,94,29.86,1.8,Calm,Calm,-,0.44,Rain,Rain,0,2013-09-24 19:53:00
3:58 PM,75.2,73.4,94,29.86,3.0,Calm,Calm,-,0.01,Rain,Rain,0,2013-09-24 19:58:00
4:16 PM,75.2,73.4,94,29.85,2.5,Calm,Calm,-,0.03,Rain,Rain,0,2013-09-24 20:16:00
4:50 PM,75.2,73.4,94,29.86,4.0,Calm,Calm,-,0.14,Rain,Rain,0,2013-09-24 20:50:00
4:53 PM,75.0,73.9,96,29.85,4.0,Calm,Calm,-,0.15,Rain,Rain,0,2013-09-24 20:53:00
5:50 PM,75.2,73.4,94,29.85,10.0,Calm,Calm,-,0.04,,Scattered Clouds,0,2013-09-24 21:50:00
5:53 PM,75.9,73.9,94,29.84,10.0,Calm,Calm,-,0.04,,Scattered Clouds,0,2013-09-24 21:53:00
6:22 PM,77.0,73.4,89,29.85,10.0,ESE,3.5,-,N/A,,Mostly Cloudy,110,2013-09-24 22:22:00
6:53 PM,77.0,73.9,90,29.85,10.0,East,3.5,-,N/A,,Overcast,80,2013-09-24 22:53:00
7:11 PM,75.2,73.4,94,29.86,10.0,Calm,Calm,-,N/A,,Mostly Cloudy,0,2013-09-24 23:11:00
7:25 PM,75.2,73.4,94,29.86,10.0,Calm,Calm,-,N/A,,Partly Cloudy,0,2013-09-24 23:25:00
7:44 PM,75.2,73.4,94,29.87,10.0,Calm,Calm,-,N/A,,Mostly Cloudy,0,2013-09-24 23:44:00
7:53 PM,75.9,73.9,94,29.86,10.0,Calm,Calm,-,N/A,,Mostly Cloudy,0,2013-09-24 23:53:00
8:12 PM,75.2,73.4,94,29.87,10.0,Calm,Calm,-,N/A,,Overcast,0,2013-09-25 00:12:00
8:53 PM,75.0,73.0,94,29.86,10.0,SE,3.5,-,N/A,,Mostly Cloudy,130,2013-09-25 00:53:00
9:53 PM,75.0,73.0,94,29.85,7.0,Calm,Calm,-,N/A,,Overcast,0,2013-09-25 01:53:00
10:39 PM,73.4,73.4,100,29.86,1.8,SSW,3.5,-,N/A,,Overcast,200,2013-09-25 02:39:00
10:49 PM,75.2,73.4,94,29.86,0.5,South,3.5,-,N/A,Fog,Fog,190,2013-09-25 02:49:00
10:53 PM,75.0,73.0,94,29.86,0.5,Calm,Calm,-,N/A,Fog,Fog,0,2013-09-25 02:53:00
11:02 PM,73.4,73.4,100,29.86,0.2,SW,3.5,-,N/A,Fog,Fog,220,2013-09-25 03:02:00
11:19 PM,73.4,73.4,100,29.86,0.5,Calm,Calm,-,N/A,Fog,Fog,0,2013-09-25 03:19:00
11:53 PM,73.9,73.0,97,29.85,1.0,West,3.5,-,N/A,,Overcast,260,2013-09-25 03:53:00
11:59 PM,73.4,73.4,100,29.86,3.0,Calm,Calm,-,N/A,,Overcast,0,2013-09-25 03:59:00